Retour au catalogue

ORBCOMM FM 36

ActifCommunicationsLEO
NORAD 25984·PAYLOAD·🇺🇸 United States

Lancé Dec 4, 1999 depuis Cape Canaveral Space Force Station

Loading…

Prochains Passages (prochaines 24 heures)

TLE

FraisSource: Space-Track

Époque: Sep 14, 2026, 13:56 UTC

1 25984U 99065E   26257.58107465  .00000619  00000-0  24284-3 0  9994
2 25984  45.0381  95.1539 0003831  68.5835 291.5423 14.39339539399863

Suivez ORBCOMM FM 36 en temps réel avec AllMySat

Download on the App Store